COSMOS 2589

Last updated on Tue Sep 22 2026 00:03:16 GMT+0000 (Coordinated Universal Time)

1 64467U 25131A 26264.51299078 -.00000352 00000+0 00000+0 0 9999 2 64467 0.1779 89.6388 0011449 338.0564 238.1909 1.00518511 4528
UTC large
Height (km)
Speed (km/s)
/
Latitude / Longitude
Inclination (degrees)
Orbital Period (minutes)
Azimuth
Elevation
Range (km)
Doppler Factor

Next 0 passes for location: London (51.5072 / 0.1276)

No passes found over London.
COSMOS 2589